RH
82 75 74 81 78 78 91 74 78 79 74 80 99 88 86 43 53 72 58 52 50 39 28 34 39 40 35 29 28 33 44 45 42 39 34 32 31 30 28 27 27 25 25 28 30
56 77 81 68 82 79 57 64 69 74 82 86 100 95 68 44 73 64 52 49 46 33 37 36 39 37 24 25 28 33 43 38 36 36 38 32 30 29 29 28 27 27 26 25 27
68 70 70 75 61 56 62 77 78 82 87 67 88 55 51 71 61 51 47 39 35 43 40 38 36 27 22 24 30 36 36 39 39 34 32 30 29 27 28 27 25 25 27 28 30
82 86 82 80 84 82 78 86 92 80 78 77 74 70 68 55 46 36 40 31 39 40 40 38 32 23 24 28 29 36 38 36 34 27 28 28 24 22 25 23 20 20 22 23 31
73 70 58 79 85 94 96 81 77 60 70 66 62 55 49 40 36 36 29 34 41 38 39 33 26 20 25 28 27 36 36 29 24 20 21 20 18 18 17 15 15 14 19 21 27
64 71 69 70 80 82 88 92 72 70 54 39 42 49 37 32 36 33 30 38 37 34 33 26 22 19 23 25 26 32 26 23 22 25 26 26 25 25 15 18 17 15 17 20 21
66 64 69 61 77 86 80 72 53 45 41 39 37 34 31 38 34 30 34 35 33 28 25 21 18 18 20 26 24 20 22 23 31 32 30 36 19 29 22 23 22 21 19 18 16
58 55 58 60 67 53 50 45 41 42 37 34 34 34 40 34 30 29 31 33 28 23 20 19 17 16 20 22 22 20 18 16 28 42 34 27 18 18 23 25 20 21 23 21 17
52 51 50 51 49 45 40 38 38 40 34 33 33 31 33 29 26 27 28 28 24 20 17 16 14 21 20 24 24 25 15 17 23 48 47 35 23 21 25 26 28 32 32 29 20
42 44 43 40 40 47 51 47 46 46 40 38 29 26 30 32 26 25 26 26 25 19 17 15 19 39 48 31 28 18 18 24 24 40 47 40 39 36 26 30 37 37 37 35 23
36 39 42 40 47 48 45 46 40 40 43 49 44 41 37 35 28 27 27 23 19 18 31 31 63 59 51 45 34 31 29 28 30 54 44 38 48 39 32 38 39 40 40 38 32
34 38 37 36 34 36 38 37 41 41 42 44 39 37 30 27 31 31 26 21 27 46 33 47 60 53 51 43 41 35 27 28 37 49 40 47 41 40 38 41 45 48 46 41 37
26 30 37 35 34 33 33 34 36 38 32 34 38 42 40 31 41 38 32 34 40 51 49 46 53 52 40 45 39 60 39 47 45 54 46 51 28 28 39 40 45 48 48 45 43
25 24 26 27 26 28 28 31 31 34 65 35 39 38 37 30 38 40 36 34 48 54 59 61 51 49 48 54 41 27 59 53 57 46 32 48 23 22 40 40 41 44 43 41 40
19 22 21 21 22 22 27 29 30 40 58 29 40 39 40 30 33 36 39 32 55 58 34 55 53 52 58 59 48 46 60 64 68 73 62 48 62 33 46 48 42 43 43 39 35
22 22 23 23 23 24 26 29 47 64 42 43 42 46 37 41 42 36 35 34 45 52 63 63 60 59 58 67 64 68 50 62 72 74 61 64 66 53 54 48 42 45 45 41 38
22 24 23 24 25 25 28 42 64 65 32 40 51 46 48 48 44 40 46 53 44 43 63 53 60 62 57 62 60 47 56 59 54 64 52 75 80 55 35 43 42 47 45 41 36
18 27 32 34 35 38 45 40 51 38 40 42 48 41 49 45 46 48 43 43 48 51 71 51 45 61 62 58 58 56 43 62 31 34 35 57 61 53 49 40 46 41 41 42 32
16 30 30 34 39 36 35 77 56 43 49 47 40 34 38 40 42 48 53 52 52 45 33 38 42 62 67 65 53 61 63 46 55 65 60 50 38 28 44 47 54 49 46 39 33
26 20 32 39 33 29 60 70 62 55 60 48 38 40 34 42 36 40 43 51 49 49 42 42 36 58 68 62 66 55 54 52 67 24 28 39 38 55 54 52 58 58 49 35 32
34 28 34 32 28 26 80 69 58 54 53 44 42 40 42 39 37 36 45 51 49 48 39 35 26 38 60 69 72 76 72 67 55 48 32 28 47 49 55 54 60 55 44 33 30
32 58 38 26 44 76 78 58 55 51 45 47 44 41 39 36 35 36 41 48 52 45 46 51 33 43 41 58 55 60 62 54 52 32 64 45 53 31 40 46 54 47 44 35 30
36 36 34 23 59 73 57 57 59 51 53 47 47 43 39 39 29 37 47 52 53 45 50 42 33 46 29 44 53 67 68 58 59 62 66 40 28 26 47 49 47 43 42 33 34
35 68 40 36 46 55 48 55 49 50 51 48 46 40 36 38 42 37 47 51 54 54 48 38 44 26 32 19 50 60 64 68 58 81 57 52 34 29 30 43 42 36 32 32 38
41 64 64 72 63 49 47 46 44 44 48 47 40 40 35 34 38 36 40 54 56 64 58 49 44 54 50 41 42 43 46 71 76 61 50 38 48 29 30 29 28 28 29 34 37
48 59 62 69 64 51 55 44 43 42 40 43 37 43 46 34 28 28 40 47 40 69 63 70 53 67 68 62 68 71 63 52 59 60 70 59 58 36 36 37 36 35 37 39 37
54 58 58 75 69 66 63 48 42 44 44 43 44 46 45 43 41 35 34 33 35 63 72 71 68 78 78 71 71 70 64 68 63 59 53 62 48 44 46 42 38 36 37 36 40
Wind_Speed
8 5 4 3 4 10 12 12 16 17 16 18 22 17 13 11 15 14 12 7 6 12 14 16 16 14 11 6 4 3 3 3 5 5 4 5 3 3 3 3 4 4 3 3 5
9 5 2 1 4 11 9 14 14 13 10 14 17 18 12 15 14 12 9 9 8 11 16 20 18 14 5 5 3 3 3 6 0 1 3 3 2 3 2 1 3 6 7 6 7
10 7 6 4 5 9 13 13 11 12 14 14 4 13 16 16 12 6 9 9 10 13 17 20 18 9 3 4 2 2 3 4 2 2 3 3 2 1 2 2 6 4 6 8 9
15 9 8 6 5 10 12 12 11 11 7 4 16 17 16 15 6 6 9 10 13 14 18 19 16 6 3 4 4 5 3 3 4 3 2 2 1 1 3 2 2 2 5 6 10
18 15 12 11 10 13 20 18 11 16 20 20 19 17 13 6 4 4 9 12 14 15 19 18 15 6 5 6 5 4 2 5 6 6 5 0 1 2 6 5 9 11 7 7 9
17 14 14 20 18 17 14 14 12 21 19 13 13 15 9 5 4 2 10 13 11 14 17 15 9 6 9 3 4 6 8 5 5 5 3 2 1 3 3 3 3 2 9 10 10
14 17 16 17 21 19 21 22 19 16 11 13 14 11 7 5 3 4 11 11 11 14 15 12 13 5 7 5 9 10 5 2 7 5 2 4 2 4 2 5 4 7 6 6 11
12 13 16 19 18 24 22 15 13 10 12 13 11 7 5 7 7 8 10 9 10 13 13 14 11 11 4 13 6 4 4 3 3 10 2 1 4 3 5 8 20 16 11 11 7
9 10 10 9 11 10 8 10 10 9 8 7 5 4 5 8 8 8 8 10 12 14 16 13 8 7 5 4 4 6 2 1 1 5 3 1 4 4 6 17 20 13 10 11 12
8 8 7 5 6 9 12 11 7 8 8 6 6 7 4 7 9 8 9 11 6 16 12 5 6 4 4 4 4 4 3 0 2 4 4 4 7 7 13 16 11 11 6 8 12
5 6 5 5 4 5 10 2 1 6 16 8 8 13 13 13 11 6 8 9 9 6 4 6 8 4 1 1 3 6 4 1 0 2 4 3 7 9 16 3 5 7 5 6 8
9 6 1 6 3 4 6 1 6 9 12 15 15 17 13 9 7 5 3 2 3 4 2 6 4 2 0 4 6 5 3 2 3 2 1 5 14 4 2 2 2 5 7 9 13
6 7 8 7 8 3 4 13 8 2 5 10 14 11 8 8 6 8 3 5 6 6 5 7 4 1 3 4 5 4 4 1 2 5 2 7 5 1 1 3 4 5 8 11 12
6 4 4 4 5 6 4 2 0 2 5 10 8 8 6 3 4 10 5 3 7 5 5 7 1 3 4 4 2 2 0 2 2 4 3 5 5 4 1 2 2 4 8 9 9
7 4 1 2 2 2 2 1 1 1 6 6 5 4 7 5 2 8 11 6 5 4 3 1 2 4 5 1 1 3 2 3 2 3 2 4 2 5 2 4 6 7 9 9 9
10 6 2 0 1 1 1 1 2 6 0 5 4 4 3 7 3 3 5 9 5 6 8 4 2 3 3 2 3 6 3 4 3 2 2 2 3 5 4 5 4 6 11 10 9
15 12 6 3 1 2 2 1 5 6 2 3 2 4 4 5 5 6 5 6 3 5 3 4 3 2 2 3 2 3 4 3 5 4 4 1 0 10 4 4 4 12 14 12 11
10 12 12 10 7 4 2 5 9 0 0 1 1 2 4 4 4 5 3 3 6 5 4 4 4 2 4 1 3 2 3 4 5 2 4 1 6 5 4 4 6 9 13 13 13
3 14 16 10 9 6 0 6 5 2 2 2 2 4 4 3 3 5 4 2 2 5 4 4 1 1 3 2 2 2 1 2 6 2 2 3 7 6 5 3 1 10 13 13 14
5 2 23 13 9 4 6 4 1 2 2 1 3 2 2 4 3 4 2 2 2 4 2 2 4 2 1 2 6 1 4 4 3 1 4 5 5 5 4 5 4 6 12 12 13
7 2 24 11 6 8 4 2 2 1 1 2 2 3 2 2 2 2 1 1 1 1 4 3 2 2 1 3 5 2 1 4 2 2 3 3 6 5 5 5 8 13 15 13 14
7 4 21 8 7 5 3 2 1 2 4 3 3 3 2 1 3 2 2 1 1 2 2 1 4 3 1 1 2 2 4 4 4 3 1 2 7 4 6 8 11 15 14 13 14
4 5 18 10 4 3 2 3 4 5 4 4 2 3 1 2 2 1 2 0 1 2 5 4 1 2 4 3 2 4 4 3 4 3 6 4 5 0 3 1 8 13 14 15 16
4 3 8 16 9 5 3 4 4 5 3 4 2 2 3 3 5 3 2 0 1 2 4 4 2 5 6 4 4 3 5 6 5 3 4 7 9 6 5 5 8 13 17 17 20
9 4 4 4 6 5 2 1 3 1 2 5 4 3 2 2 2 0 1 1 3 2 2 3 2 2 5 6 3 5 5 8 10 9 8 5 9 16 5 7 12 23 22 21 26
5 4 5 4 5 2 5 1 2 1 0 0 4 3 1 1 2 3 5 4 5 2 5 0 3 4 4 2 7 6 11 14 15 9 10 15 20 14 22 14 16 18 17 23 25
9 7 3 5 4 3 4 3 1 1 0 0 1 1 1 3 4 5 8 4 5 7 6 4 4 2 4 3 6 7 8 10 5 5 7 9 9 7 5 10 12 15 14 17 20
Wind_Direction
29 48 56 63 208 202 189 210 208 202 202 212 209 198 211 198 180 186 190 189 202 173 165 162 157 160 156 150 149 149 72 151 188 169 158 158 139 135 137 141 183 190 187 185 193
28 30 42 88 177 205 192 198 199 198 200 197 170 187 193 174 167 182 189 206 191 170 166 163 157 159 147 135 126 102 112 190 137 18 141 123 108 134 146 121 233 225 224 231 220
32 34 54 44 248 176 194 186 177 186 187 187 173 161 156 154 147 181 202 214 181 166 166 161 155 159 129 137 84 90 141 147 73 71 104 111 92 42 122 238 237 234 237 226 211
43 61 29 360 184 179 176 164 158 136 145 168 142 139 143 151 150 173 210 208 172 162 162 159 156 155 106 132 103 91 78 105 138 86 104 93 115 337 229 253 221 280 251 233 212
54 55 54 39 62 99 151 142 109 131 134 136 140 140 137 149 69 167 201 182 166 163 167 160 156 149 144 126 106 88 134 87 103 86 79 12 228 243 266 279 270 259 230 219 217
58 57 52 69 77 90 113 146 135 124 122 118 128 135 120 82 33 161 182 166 159 163 159 159 161 162 117 82 81 120 104 94 61 46 66 37 266 327 177 342 45 17 235 241 236
50 54 65 81 84 90 105 119 116 127 126 127 124 120 106 98 82 161 164 159 161 155 154 157 148 139 125 103 114 125 87 52 26 360 31 334 278 235 154 113 359 324 291 260 236
60 66 81 92 96 99 104 91 96 107 111 116 115 104 79 94 94 147 150 150 147 150 151 135 132 114 73 118 60 66 61 119 1 3 9 1 260 233 195 325 318 312 280 243 220
73 80 80 97 111 109 77 86 86 88 104 123 129 113 97 91 110 122 141 136 135 134 128 126 121 86 93 75 46 15 166 163 300 35 322 20 264 247 228 315 314 314 289 235 206
77 83 86 87 92 92 90 92 99 86 99 100 114 107 83 80 91 121 142 145 135 128 113 107 80 76 36 55 189 178 136 208 269 334 353 293 257 286 296 309 314 329 311 213 194
77 68 95 116 123 139 136 138 67 85 77 75 82 94 94 89 96 109 141 132 136 116 80 34 71 92 130 10 91 107 96 83 33 351 324 289 278 278 308 308 343 11 59 147 172
37 34 11 222 229 197 190 309 116 122 75 70 79 78 74 83 82 74 136 161 88 84 0 34 89 190 201 72 83 60 103 356 280 1 327 347 294 293 292 79 58 85 100 123 133
45 34 56 78 85 118 145 111 117 121 88 42 48 50 47 77 54 14 47 95 85 57 19 106 157 175 124 46 80 41 101 74 243 327 53 316 297 341 165 112 102 108 119 123 125
24 49 58 81 85 102 100 97 24 297 87 343 7 32 17 97 59 33 42 84 46 128 88 84 357 116 82 75 49 133 169 107 29 28 281 4 282 292 248 211 154 147 143 143 143
28 19 61 78 128 103 98 30 324 241 70 324 343 24 45 83 100 17 32 63 90 102 109 264 64 85 69 16 359 143 98 93 91 87 33 6 47 269 341 232 213 194 164 152 148
21 28 17 179 43 81 14 37 124 47 221 352 325 348 52 30 39 19 59 74 111 77 38 100 77 62 119 63 64 145 89 53 60 77 28 317 120 278 198 206 172 190 182 167 159
27 36 38 52 42 9 2 96 43 84 268 314 354 13 77 4 25 31 29 25 77 85 18 26 5 4 92 86 30 78 56 341 349 11 225 226 328 249 245 231 197 188 183 173 166
23 31 36 40 36 25 3 59 68 252 222 274 355 56 78 1 19 14 67 52 29 59 98 133 331 30 354 44 161 69 137 153 225 246 280 292 238 253 220 229 244 205 184 173 166
6 40 20 9 5 353 77 51 166 189 289 26 36 75 21 5 106 67 44 77 18 22 108 120 69 353 48 31 58 164 102 146 101 37 21 256 286 294 257 293 185 181 182 180 174
350 349 11 358 355 12 74 116 104 237 321 222 97 31 115 341 57 57 20 323 54 37 12 166 92 351 357 89 41 100 147 68 11 206 275 290 281 247 326 247 221 203 199 192 185
17 66 4 356 13 48 94 134 151 17 7 63 140 103 106 122 84 61 48 289 29 54 71 130 94 291 40 199 182 97 63 52 112 130 195 304 271 211 235 244 213 217 211 205 198
38 45 359 16 45 46 57 51 128 4 36 49 89 72 94 81 87 101 117 95 26 138 71 11 129 173 119 115 152 161 173 160 131 207 128 143 271 220 253 270 222 225 223 219 210
34 50 29 49 77 27 40 45 55 24 26 22 67 30 34 96 62 61 131 11 118 97 163 183 30 38 340 9 360 219 197 143 101 88 199 168 257 242 290 231 212 226 224 217 212
19 24 32 54 81 110 85 16 23 28 35 18 80 64 80 50 21 158 150 345 50 99 125 125 130 177 194 201 131 202 200 190 158 153 192 225 274 254 249 253 233 233 235 226 216
31 46 21 354 22 90 107 127 133 61 53 24 24 39 74 84 42 140 104 14 27 126 73 103 216 145 276 246 242 242 214 189 204 211 199 279 229 270 245 245 252 282 262 234 218
59 25 27 32 353 24 1 45 101 38 353 218 136 160 168 205 204 213 168 203 200 175 160 324 208 165 277 182 196 249 223 220 224 234 262 267 280 292 298 288 287 293 276 250 231
43 40 52 15 8 19 347 353 21 303 96 88 184 110 205 236 238 245 222 209 197 162 184 161 145 118 272 350 325 292 240 197 184 190 194 214 244 330 314 322 317 316 303 266 245